Location: ???????
(55.4362°N, 38.1183°E)
Time: 07:15:54
(UTC+00:00)

Nauka - Pass Details

Date: 30 September 2021
Orbit: 417 x 423 km, 51.6° (Epoch: 24 October)

Event Time Altitude Azimuth Distance (km) Brightness Sun altitude
Rises 17:30:02 0° 274° (W) 2,368 ? -20.7°
Reaches altitude 10° 17:32:43 10° 251° (WSW) 1,502 ? -21.1°
Enters shadow 17:34:45 16° 214° (SSW) 1,208 ? -21.3°
